Flag for U.S.A. Weather past 2 weeks in Paterson, New Jersey, U.S.A.

Now
65 °F

Sunny.


Feels Like: 65 °F
Forecast: 60 / 80 °F
Wind: No wind

Location: Essex County Airport

Current Time: Jul 30, 2014 at 9:50:48 AM

Latest Report: Jul 30, 2014 at 8:53 AM


Visibility: 10 mi

Pressure: 30.06 "Hg

Humidity: 66%

Dew point: 53 °F

Location of PatersonLocation

Historic Weather in Paterson — Graph

°F

Paterson temperature yesterday

Maximum temperature yesterday: 75 °F (at 3:53 PM)
Minimum temperature yesterday: 60 °F (at 11:53 PM)
Average temperature yesterday: 67 °F

Past Weeks' High & Low Weather Summary

 TemperatureHumidityPressure
High90 °F (Jul 23, 3:53 PM)100% (Jul 15, 8:53 PM)30.27 "Hg (Jul 15, 8:53 PM)
Low55 °F (Jul 30, 5:53 AM)35% (Jul 17, 3:53 PM)29.53 "Hg (Jul 28, 1:53 PM)
Average73 °F68%29.97 "Hg
* Reported Jul 15 7:53 AM — Jul 30 7:53 AM, Paterson, Weather by CustomWeather, © 2014

Note: Actual official high and low records may vary slightly from our data, if they occured in-between our weather recording intervals... More about our weather records

Advertising

Paterson weather history for previous 24 hours

 ConditionsComfort  
Time TempWeatherWind HumidityBarometerVisibility
7:53 AM
Jul 30
61 °FSunny.No wind78%30.05 "Hg10 mi
6:53 AM56 °FSunny.No wind90%30.03 "Hg10 mi
5:53 AM55 °FClear.No wind90%30.02 "Hg10 mi
4:53 AM56 °FPassing clouds.No wind90%30.01 "Hg10 mi
3:53 AM56 °FPassing clouds.No wind90%29.99 "Hg10 mi
2:53 AM58 °FPassing clouds.No wind84%30.00 "Hg10 mi
1:53 AM59 °FPassing clouds.No wind81%30.00 "Hg10 mi
12:53 AM59 °FClear.No wind81%30.01 "Hg10 mi
11:53 PM
Jul 29
60 °FClear.No wind78%30.00 "Hg10 mi
10:53 PM62 °FClear.3 mph73%30.00 "Hg10 mi
9:53 PM63 °FClear.No wind68%29.99 "Hg10 mi
8:53 PM65 °FScattered clouds.No wind63%29.97 "Hg10 mi
7:53 PM69 °FSunny.No wind55%29.96 "Hg10 mi
6:53 PM72 °FOvercast.3 mph46%29.95 "Hg10 mi
5:53 PM73 °FOvercast.6 mph44%29.93 "Hg10 mi
4:53 PM73 °FPartly sunny.6 mph43%29.93 "Hg10 mi
3:53 PM75 °FPassing clouds.7 mph39%29.91 "Hg10 mi
2:53 PM74 °FPassing clouds.5 mph41%29.90 "Hg10 mi
1:53 PM73 °FPartly sunny.10 mph43%29.89 "Hg10 mi
12:53 PM73 °FPartly sunny.6 mph44%29.89 "Hg10 mi
11:53 AM71 °FPassing clouds.7 mph51%29.89 "Hg10 mi
10:53 AM69 °FSunny.10 mph53%29.89 "Hg10 mi
9:53 AM68 °FSunny.8 mph57%29.89 "Hg10 mi
Weather by CustomWeather, © 2014

See weather overviewHow to use our weather pages